Showing default

OPS 9316 (IDSCS 6), 2220

Orbit data source: Space-Track

OPS 9316 (IDSCS 6), 2220 is a payload satellite owned by USAF SSD (US) in GEO that was launched on Thu, 16 Jun 1966 UTC via a TITAN IIIC launch vehicle from the Air Force Eastern Test Range (AFETR). Payload-class satellites include a variety of spacecraft equipped with specific instruments for various scientific and technological missions. These include communications satellites like Starlink; space stations such as the ISS; scientific satellites like the Hubble; Earth observation satellites from companies like Planet Labs, Umbra, and HawkEye 360; GPS; miniature CubeSats for education and research; and military/defense satellites.

Loading next visibility...
Identifier
2220, 1966-053G
Orbit
GEO
Country
Flag of USUS
Related business
Manufacturer
Philco-Ford WDL
Mission
Non-operational spacecraft
Bus & Motor
IDCSP, Unknown motor
Mass
45 kg wet, 45 kg dry
Launch date (UTC)
1966-06-16 (59 years ago)
Launch vehicle
TITAN IIIC
Launch site
Air Force Eastern Test Range (AFETR)
Object type
Payload
Rocket body
Debris
Shape & HBR
Unknown
Radar Cross Section
Medium (>0.1 m² and <1 m²)

Expand to show TLE details & history
Last TLE update: 1 day ago

TLE from 1 day ago
0 OPS 9316 (IDSCS 6)
1 02220U 66053G   25346.18605854 -.00000117  00000-0  00000-0 0  9993
2 02220   8.1121  47.8855 0067442 178.4238 186.1042  1.07157150137059
Epoch: 2025-12-12T04:27Z
TLE epoch observation values (Epoch: 2025-12-12T04:27:55.457Z)
Latitude
0.6397°
Longitude
-95.82489°
Altitude
34,230.959 km
Speed
3.123 km/s
True Right ascension
03h 29m 08s
True Declination
0° 38' 21"
Sunlit
Object was in daylight at epoch
Visualization orbit readout
Latitude
Unknown
Longitude
Unknown
Altitude
Unknown
Speed
Unknown
Apparent Right ascension
Unknown
Apparent Declination
Unknown
Sunlit
N/A
Visualization observer readout
Local Sidereal Time
05:21:42
Azimuth
Unknown
Elevation
Unknown
Doppler factor
Unknown
Orbital elements
Apogee altitude
34,233.629 km
Perigee altitude
33,689.511 km
Semi-major axis
40,339.707 km
Eccentricity
0.00674
Inclination
8.1121°
RAAN
47.8855°
Arg. of periapsis
178.4238°
True anomaly
186.0227°
Mean anomaly
186.1042°
Eccentric anomaly
186.06338°
Mean motion
0.26788 °/min
Orbital period
1,343.87 mins
BSTAR
0
Loading maneuver chart data...
Computing Atmospheric mass density...
Loading historical data...
Loading historical data...
Loading historical data...
Loading historical data...
Loading historical data...
Loading historical data...
Loading historical data...

Documentation

Showing up to 5 results
|